Regional Weather Roundup
Issued by NWS

Home | Current Version | Previous Version | Text Only | Print | Product List | Glossary Off
Versions: 1 2 3 4 5 6 7 8 9 10 11 12 13 14 15 16 17 18 19 20 21 22 23 24 25 26 27 28 29 30 31 32 33 34 35 36 37 38 39 40 41 42 43 44 45 46 47 48 49 50

000
ASUS43 KLOT 172312
RWRIL

ILLINOIS REGIONAL WEATHER ROUNDUP
NATIONAL WEATHER SERVICE CHICAGO/ROMEOVILLE IL
600 PM CDT FRI APR 17 2015

NOTE: "FAIR" INDICATES FEW OR NO CLOUDS BELOW 12,000 FEET WITH NO
SIGNIFICANT WEATHER AND/OR OBSTRUCTIONS TO VISIBILITY.

* THESE STATIONS ARE NOT UNDER NWS QUALITY CONTROL. THEY ALSO MAY NOT
  REPORT WEATHER SUCH AS PRECIPITATION OR FOG.

ILZ001-002-007-009-015-016-024-180000-
NORTHWEST ILLINOIS

CITY           SKY/WX    TMP DP  RH WIND       PRES   REMARKS
MOLINE         SUNNY     80  46  30 S5        29.97F
STERLING*      SUNNY     79  48  34 W12       29.99S
SAVANNA*       PTSUNNY   79  45  30 SW6       29.98S
$$

ILZ003-004-008-010-011-017-018-180000-
NORTH CENTRAL ILLINOIS

CITY           SKY/WX    TMP DP  RH WIND       PRES   REMARKS
ROCKFORD       CLOUDY    76  47  35 W8        30.01S
FREEPORT*      CLOUDY    74  47  38 W6        30.01S
ROCHELLE*      CLOUDY    76  46  34 SW10      30.00S
DE KALB*       CLOUDY    73  46  37 W6        30.01S
PERU*          SUNNY     78  45  31 W5        30.00S
$$

ILZ005-006-012>014-019>023-180000-
NORTHEAST ILLINOIS

CITY           SKY/WX    TMP DP  RH WIND       PRES   REMARKS
CHICAGO-OHARE  PTSUNNY   76  46  34 W13       29.98S
CHICAGO-MIDWAY PTSUNNY   78  47  33 SW9       29.99S
AURORA         PTSUNNY   75  46  35 SW6       29.99F
LANSING*       MOSUNNY   75  43  30 W7        30.00S
JOLIET*        SUNNY     78  47  33 SW7       29.99S
WAUKEGAN       CLOUDY    63  45  51 SE9       30.00S
DUPAGE AIRPORT PTSUNNY   74  47  38 SW7       29.99S
KANKAKEE*      SUNNY     76  49  38 SW6       30.01F
WHEELING       CLOUDY    74  45  35 E6        30.00S
MORRIS*        SUNNY     77  45  31 SW9       29.98F
ROMEOVILLE*    SUNNY     77  42  28 W8        30.00S
NORTHERLY ISL    N/A     59  45  59 CALM        N/A
$$

LMZ740>746-180000-
SOUTHERN LAKE MICHIGAN

STATION/POSITION SKY/WX   TEMP    WIND        PRES    VSBY  WAVE
                          AIR SEA DIR/SP/G                  HT/PER
                          (F)     (DEG/KT/KT) (MB)    (MI)  (FT/S)
HARRISON CRIB              58     100/ 16/ 18   N/A
BURNHAM HARBOR             60      CALM  /  5   N/A
CALUMET HARBOR             61     100/  7/  9   N/A
BURNS HARBOR               59      80/ 10/ 12 1016.6F
MICHIGAN CITY              62      30/ 11/ 11   N/A
MICHIGAN CITY 6N           54 49                N/A           0
$$

ILZ025>027-034>036-040-047-049-050-058-095>099-180000-
WEST-CENTRAL ILLINOIS

CITY           SKY/WX    TMP DP  RH WIND       PRES   REMARKS
QUINCY         MOSUNNY   78  51  38 S5        29.98F
GALESBURG*     MOSUNNY   76  52  43 CALM      29.99S
MACOMB*        PTSUNNY   79  49  33 S5        30.00S
JACKSONVILLE*  SUNNY     80  53  39 CALM      29.98F HX  80
PITTSFIELD*    PTSUNNY   77  53  42 E3        30.00S
$$

ILZ028>032-037-038-041>044-048-051>054-059>061-180000-
CENTRAL ILLINOIS

CITY           SKY/WX    TMP DP  RH WIND       PRES   REMARKS
PONTIAC        SUNNY     78  49  35 CALM      30.01S
BLOOMINGTON    MOSUNNY   77  52  41 VRB5      30.02S
DECATUR        SUNNY     78  51  38 CALM      30.01F
PEORIA         MOSUNNY   81  50  33 CALM      29.99F HX  80
LACON*         MOSUNNY   76  49  38 S3        29.99S
LINCOLN*       SUNNY     79  50  35 CALM      29.97F
SPRINGFIELD    SUNNY     78  53  41 SE3       29.99F
TAYLORVILLE    SUNNY     73  52  46 SE5       30.01S
$$

ILZ033-039-045-046-055>057-062-063-180000-
EAST-CENTRAL ILLINOIS

CITY           SKY/WX    TMP DP  RH WIND       PRES   REMARKS
CHAMPAIGN      SUNNY     76  47  35 CALM      30.02S
DANVILLE*      MOSUNNY   74  46  36 CALM      30.00F
RANTOUL*       SUNNY     78  49  36 S5        30.01F
MATTOON        SUNNY     74  54  49 NW3       30.01S
PARIS*         MOSUNNY   74  51  44 W3        30.03S
$$

ILZ079-100>102-180000-
SOUTHWEST ILLINOIS

CITY           SKY/WX    TMP DP  RH WIND       PRES   REMARKS
BELLEVILLE     SUNNY     76  59  54 SE6       29.98F
CAHOKIA*       MOSUNNY   77  56  48 S5        29.98F
SPARTA*        SUNNY     75  56  50 CALM      30.00S
$$

ILZ064>066-069>071-074>076-080>082-084>086-088>090-092>094-180000-
SOUTH-CENTRAL ILLINOIS

CITY           SKY/WX    TMP DP  RH WIND       PRES   REMARKS
CARBONDALE     MOSUNNY   77  59  53 NE5       29.99S
CAIRO*         MOSUNNY   74  63  66 SW3       30.00R
EFFINGHAM*     SUNNY     76  48  36 CALM      30.03S
MARION         MOSUNNY   77  61  57 E8        29.99F
MT. VERNON     MOSUNNY   75  57  53 NE3       30.01S
CENTRALIA*     SUNNY     78  57  47 CALM      30.00S
SALEM*         CLOUDY    78  53  40 CALM      30.01S
METROPOLIS*    MOSUNNY   77  60  57 SE5       29.98S
$$

ILZ067-068-072-073-078-083-087-091-180000-
SOUTHEAST ILLINOIS

CITY           SKY/WX    TMP DP  RH WIND       PRES   REMARKS
LAWRENCEVILLE  PTSUNNY   76  54  46 CALM      30.01S
FLORA*         PTSUNNY   75  56  50 E3        30.01F
FAIRFIELD*     MOSUNNY   75  56  52 CALM      30.00S
HARRISBURG*    PTSUNNY   75  59  57 E6        30.00F
ROBINSON*      MOSUNNY   76  51  42 CALM      30.02S
CARMI*         PTSUNNY   75  53  44 E5        30.00S HAZE
$$

ABBREVIATIONS USED IN REMARKS
   TC - TEMPERATURE IN CELSIUS
  WCI - WIND CHILL INDEX
   HX - HEAT INDEX
  VSB - VISIBILITY
$$



USA.gov is the U.S. government's official web portal to all federal, state and local government web resources and services.